| time (UTC) | temp C | wind direction | speed KPH | gust KPH | rain 1hr cm | rain 24hr cm | rain mn cm | humidity % | barometer mb |
| 20260504175056 | 22 | 237 | 9.7 | 22.5 | 0.00 | 0.00 | 0.00 | 35 | 1013.3 |
| 20260504174553 | 22 | 5 | 8.0 | 22.5 | 0.00 | 0.00 | 0.00 | 35 | 1013.3 |
| 20260504174057 | 21 | 290 | 9.7 | 22.5 | 0.00 | 0.00 | 0.00 | 37 | 1013.3 |
| 20260504173556 | 21 | 178 | 8.0 | 22.5 | 0.00 | 0.00 | 0.00 | 36 | 1013.6 |
| 20260504173115 | 21 | 296 | 6.4 | 29.0 | 0.00 | 0.00 | 0.00 | 37 | 1013.4 |
| 20260504172552 | 21 | 240 | 12.9 | 29.0 | 0.00 | 0.00 | 0.00 | 37 | 1013.7 |
| 20260504172055 | 21 | 259 | 9.7 | 20.9 | 0.00 | 0.00 | 0.00 | 37 | 1013.6 |
| 20260504171557 | 21 | 300 | 9.7 | 22.5 | 0.00 | 0.00 | 0.00 | 38 | 1013.6 |
| 20260504171056 | 21 | 295 | 11.3 | 29.0 | 0.00 | 0.00 | 0.00 | 36 | 1013.8 |
| 20260504170555 | 21 | 296 | 14.5 | 29.0 | 0.00 | 0.00 | 0.00 | 36 | 1013.9 |
| 20260504151054 | 19 | 196 | 9.7 | 22.5 | 0.00 | 0.00 | 0.00 | 49 | 1015.2 |
| 20260504150556 | 18 | 292 | 12.9 | 22.5 | 0.00 | 0.00 | 0.00 | 48 | 1015.2 |
| 20260504141055 | 17 | 275 | 9.7 | 29.0 | 0.00 | 0.00 | 0.00 | 56 | 1015.2 |
| 20260504140553 | 17 | 217 | 16.1 | 29.0 | 0.00 | 0.00 | 0.00 | 54 | 1015.3 |
| 20260504140112 | 17 | 260 | 14.5 | 27.4 | 0.00 | 0.00 | 0.00 | 54 | 1015.2 |
| 20260504130552 | 14 | 219 | 12.9 | 25.7 | 0.00 | 0.00 | 0.00 | 65 | 1015.5 |
| 20260504120136 | 8 | 187 | 6.4 | 11.3 | 0.00 | 0.00 | 0.00 | 90 | 1016.3 |
| 20260504110552 | 2 | 0 | 0.0 | 0.0 | 0.00 | 0.00 | 0.00 | 92 | 1016.2 |
| 20260504100551 | 0 | 0 | 0.0 | 0.0 | 0.00 | 0.00 | 0.00 | 88 | 1016.1 |
| 20260504081555 | 1 | 0 | 0.0 | 3.2 | 0.00 | 0.00 | 0.00 | 86 | 1016.1 |
| 20260504081050 | 1 | 0 | 0.0 | 3.2 | 0.00 | 0.00 | 0.00 | 86 | 1016.1 |
| 20260504080553 | 1 | 0 | 0.0 | 3.2 | 0.00 | 0.00 | 0.00 | 86 | 1016.0 |
| 20260504050555 | 3 | 360 | 3.2 | 8.0 | 0.00 | 0.00 | 0.00 | 83 | 1015.5 |
| 20260504050131 | 3 | 360 | 1.6 | 6.4 | 0.00 | 0.00 | 0.00 | 83 | 1015.5 |
| 20260504045554 | 3 | 0 | 0.0 | 6.4 | 0.00 | 0.00 | 0.00 | 83 | 1015.4 |
| 20260504045054 | 3 | 360 | 0.0 | 6.4 | 0.00 | 0.00 | 0.00 | 82 | 1015.4 |
| 20260504044558 | 3 | 360 | 1.6 | 6.4 | 0.00 | 0.00 | 0.00 | 83 | 1015.5 |
| 20260504044052 | 3 | 0 | 0.0 | 6.4 | 0.00 | 0.00 | 0.00 | 83 | 1015.4 |
| 20260504043553 | 3 | 0 | 1.6 | 6.4 | 0.00 | 0.00 | 0.00 | 82 | 1015.4 |
| 20260504043101 | 3 | 360 | 0.0 | 3.2 | 0.00 | 0.00 | 0.00 | 82 | 1015.3 |
| 20260504042555 | 3 | 0 | 0.0 | 3.2 | 0.00 | 0.00 | 0.00 | 82 | 1015.1 |
| 20260504042053 | 3 | 0 | 0.0 | 3.2 | 0.00 | 0.00 | 0.00 | 81 | 1015.2 |
| 20260504041554 | 3 | 0 | 0.0 | 3.2 | 0.00 | 0.00 | 0.00 | 81 | 1015.1 |
| 20260504041052 | 3 | 0 | 0.0 | 6.4 | 0.00 | 0.00 | 0.00 | 81 | 1015.1 |
| 20260504040555 | 3 | 360 | 1.6 | 6.4 | 0.00 | 0.00 | 0.00 | 80 | 1015.2 |
| 20260504040103 | 3 | 0 | 0.0 | 6.4 | 0.00 | 0.00 | 0.00 | 80 | 1015.1 |
| 20260504035555 | 3 | 360 | 0.0 | 6.4 | 0.00 | 0.00 | 0.00 | 79 | 1015.1 |
| 20260504035059 | 3 | 360 | 0.0 | 6.4 | 0.00 | 0.00 | 0.00 | 79 | 1015.0 |
| 20260504034556 | 3 | 0 | 0.0 | 6.4 | 0.00 | 0.00 | 0.00 | 79 | 1015.0 |
| 20260504034052 | 3 | 360 | 0.0 | 3.2 | 0.00 | 0.00 | 0.00 | 78 | 1015.0 |
| 20260504033552 | 3 | 0 | 0.0 | 3.2 | 0.00 | 0.00 | 0.00 | 78 | 1015.0 |
| 20260504033100 | 3 | 0 | 0.0 | 3.2 | 0.00 | 0.00 | 0.00 | 78 | 1015.1 |
| 20260504032555 | 3 | 0 | 0.0 | 3.2 | 0.00 | 0.00 | 0.00 | 77 | 1014.9 |
| 20260504032058 | 4 | 0 | 0.0 | 4.8 | 0.00 | 0.00 | 0.00 | 77 | 1015.1 |
| 20260504031629 | 4 | 360 | 0.0 | 4.8 | 0.00 | 0.00 | 0.00 | 77 | 1015.0 |
| 20260504031054 | 4 | 0 | 0.0 | 0.0 | 0.00 | 0.00 | 0.00 | 76 | 1015.0 |
| 20260504030555 | 4 | 0 | 0.0 | 0.0 | 0.00 | 0.00 | 0.00 | 75 | 1014.9 |
| 20260504030056 | 4 | 0 | 0.0 | 0.0 | 0.00 | 0.00 | 0.00 | 75 | 1014.9 |
| 20260504025556 | 5 | 0 | 0.0 | 0.0 | 0.00 | 0.00 | 0.00 | 74 | 1015.0 |
| 20260504025056 | 5 | 0 | 0.0 | 0.0 | 0.00 | 0.00 | 0.00 | 74 | 1014.9 |
| 20260504024556 | 5 | 0 | 0.0 | 0.0 | 0.00 | 0.00 | 0.00 | 73 | 1014.9 |
| 20260504024055 | 5 | 0 | 0.0 | 1.6 | 0.00 | 0.00 | 0.00 | 72 | 1015.0 |
| 20260504023555 | 5 | 0 | 0.0 | 1.6 | 0.00 | 0.00 | 0.00 | 71 | 1015.0 |
| 20260504023059 | 5 | 0 | 0.0 | 3.2 | 0.00 | 0.00 | 0.00 | 70 | 1015.0 |
| 20260504022555 | 5 | 0 | 0.0 | 4.8 | 0.00 | 0.00 | 0.00 | 70 | 1015.0 |
| 20260504022055 | 5 | 0 | 0.0 | 4.8 | 0.00 | 0.00 | 0.00 | 70 | 1015.0 |
| 20260504021609 | 6 | 0 | 0.0 | 3.2 | 0.00 | 0.00 | 0.00 | 68 | 1014.8 |
| 20260504021057 | 6 | 360 | 0.0 | 1.6 | 0.00 | 0.00 | 0.00 | 67 | 1014.9 |
| 20260504020556 | 6 | 0 | 0.0 | 1.6 | 0.00 | 0.00 | 0.00 | 66 | 1015.0 |
| 20260504020105 | 6 | 0 | 0.0 | 1.6 | 0.00 | 0.00 | 0.00 | 66 | 1014.9 |
| 20260504015553 | 6 | 0 | 0.0 | 1.6 | 0.00 | 0.00 | 0.00 | 64 | 1014.9 |
| 20260504015052 | 6 | 0 | 0.0 | 0.0 | 0.00 | 0.00 | 0.00 | 62 | 1014.9 |
| 20260504014600 | 7 | 0 | 0.0 | 0.0 | 0.00 | 0.00 | 0.00 | 61 | 1015.0 |
| 20260504014052 | 7 | 0 | 0.0 | 1.6 | 0.00 | 0.00 | 0.00 | 61 | 1015.0 |
| 20260504013554 | 7 | 0 | 0.0 | 1.6 | 0.00 | 0.00 | 0.00 | 61 | 1014.9 |
| 20260504013113 | 7 | 0 | 0.0 | 0.0 | 0.00 | 0.00 | 0.00 | 60 | 1014.9 |
| 20260504012558 | 7 | 0 | 0.0 | 4.8 | 0.00 | 0.00 | 0.00 | 59 | 1014.8 |
| 20260504012052 | 8 | 0 | 0.0 | 4.8 | 0.00 | 0.00 | 0.00 | 59 | 1014.8 |
| 20260504011558 | 8 | 0 | 0.0 | 0.0 | 0.00 | 0.00 | 0.00 | 58 | 1014.6 |
| 20260504011052 | 8 | 0 | 0.0 | 0.0 | 0.00 | 0.00 | 0.00 | 57 | 1014.4 |
| 20260504010553 | 8 | 0 | 0.0 | 0.0 | 0.00 | 0.00 | 0.00 | 56 | 1014.4 |
| 20260504010110 | 9 | 0 | 0.0 | 0.0 | 0.00 | 0.00 | 0.00 | 56 | 1014.4 |
| 20260504005555 | 10 | 0 | 0.0 | 0.0 | 0.00 | 0.00 | 0.00 | 55 | 1014.4 |
| 20260504005053 | 10 | 0 | 0.0 | 0.0 | 0.00 | 0.00 | 0.00 | 53 | 1014.2 |
| 20260504004558 | 10 | 0 | 0.0 | 0.0 | 0.00 | 0.00 | 0.00 | 51 | 1014.2 |
| 20260504004052 | 10 | 0 | 0.0 | 1.6 | 0.00 | 0.00 | 0.00 | 51 | 1014.1 |
| 20260504003554 | 11 | 0 | 0.0 | 1.6 | 0.00 | 0.00 | 0.00 | 50 | 1013.9 |
| 20260504003054 | 11 | 0 | 0.0 | 1.6 | 0.00 | 0.00 | 0.00 | 50 | 1013.7 |
| 20260504002553 | 11 | 0 | 0.0 | 1.6 | 0.00 | 0.00 | 0.00 | 48 | 1013.7 |
| 20260504002055 | 12 | 0 | 0.0 | 6.4 | 0.00 | 0.00 | 0.00 | 47 | 1013.6 |
| 20260504001609 | 12 | 0 | 0.0 | 6.4 | 0.00 | 0.00 | 0.00 | 46 | 1013.5 |
| 20260504001056 | 12 | 277 | 0.0 | 6.4 | 0.00 | 0.00 | 0.00 | 44 | 1013.5 |
| 20260504000553 | 12 | 0 | 1.6 | 6.4 | 0.00 | 0.00 | 0.00 | 43 | 1013.6 |
| 20260504000058 | 12 | 0 | 0.0 | 6.4 | 0.00 | 0.00 | 0.00 | 43 | 1013.5 |
| 20260503235554 | 13 | 0 | 0.0 | 6.4 | 0.00 | 0.00 | 0.00 | 42 | 1013.6 |
| 20260503235053 | 13 | 0 | 0.0 | 4.8 | 0.00 | 0.00 | 0.00 | 40 | 1013.5 |
| 20260503234557 | 13 | 0 | 0.0 | 9.7 | 0.00 | 0.00 | 0.00 | 39 | 1013.5 |
| 20260503234054 | 13 | 279 | 0.0 | 16.1 | 0.00 | 0.00 | 0.00 | 38 | 1013.4 |
| 20260503233557 | 13 | 319 | 3.2 | 16.1 | 0.00 | 0.00 | 0.00 | 37 | 1013.4 |
| 20260503233056 | 13 | 267 | 3.2 | 19.3 | 0.00 | 0.00 | 0.00 | 37 | 1013.2 |
| 20260503232553 | 13 | 302 | 4.8 | 19.3 | 0.00 | 0.00 | 0.00 | 37 | 1013.2 |
| 20260503232135 | 13 | 289 | 6.4 | 17.7 | 0.00 | 0.00 | 0.00 | 37 | 1013.2 |
| 20260503231557 | 13 | 341 | 8.0 | 20.9 | 0.00 | 0.00 | 0.00 | 37 | 1013.3 |
| 20260503231055 | 14 | 253 | 3.2 | 20.9 | 0.00 | 0.00 | 0.00 | 37 | 1013.2 |
| 20260503230557 | 14 | 293 | 4.8 | 14.5 | 0.00 | 0.00 | 0.00 | 37 | 1013.2 |
| 20260503230053 | 14 | 269 | 3.2 | 14.5 | 0.00 | 0.00 | 0.00 | 36 | 1013.2 |
| 20260503225554 | 14 | 275 | 4.8 | 14.5 | 0.00 | 0.00 | 0.00 | 37 | 1013.2 |
| 20260503225057 | 15 | 251 | 1.6 | 27.4 | 0.00 | 0.00 | 0.00 | 36 | 1013.2 |
| 20260503224553 | 15 | 266 | 6.4 | 27.4 | 0.00 | 0.00 | 0.00 | 34 | 1013.2 |
| 20260503224054 | 15 | 270 | 8.0 | 22.5 | 0.00 | 0.00 | 0.00 | 34 | 1013.2 |
| 20260503223554 | 15 | 305 | 6.4 | 20.9 | 0.00 | 0.00 | 0.00 | 34 | 1013.1 |
| 20260503223056 | 15 | 270 | 4.8 | 20.9 | 0.00 | 0.00 | 0.00 | 34 | 1013.1 |
| 20260503222553 | 15 | 262 | 6.4 | 20.9 | 0.00 | 0.00 | 0.00 | 35 | 1013.1 |
| 20260503222053 | 15 | 291 | 3.2 | 25.7 | 0.00 | 0.00 | 0.00 | 35 | 1013.2 |
| 20260503221553 | 15 | 0 | 9.7 | 30.6 | 0.00 | 0.00 | 0.00 | 33 | 1013.1 |
| 20260503221053 | 15 | 303 | 11.3 | 30.6 | 0.00 | 0.00 | 0.00 | 33 | 1013.3 |
| 20260503220555 | 15 | 326 | 4.8 | 17.7 | 0.00 | 0.00 | 0.00 | 33 | 1013.1 |
| 20260503220056 | 15 | 321 | 4.8 | 22.5 | 0.00 | 0.00 | 0.00 | 35 | 1013.1 |
| 20260503215555 | 15 | 315 | 4.8 | 25.7 | 0.00 | 0.00 | 0.00 | 34 | 1013.2 |
| 20260503215052 | 15 | 273 | 11.3 | 27.4 | 0.00 | 0.00 | 0.00 | 33 | 1013.2 |
| 20260503214556 | 15 | 319 | 6.4 | 27.4 | 0.00 | 0.00 | 0.00 | 33 | 1013.1 |
| 20260503214057 | 15 | 317 | 9.7 | 27.4 | 0.00 | 0.00 | 0.00 | 33 | 1013.1 |
| 20260503213555 | 15 | 0 | 9.7 | 22.5 | 0.00 | 0.00 | 0.00 | 33 | 1013.1 |
| 20260503213134 | 15 | 317 | 8.0 | 25.7 | 0.00 | 0.00 | 0.00 | 35 | 1013.1 |
| 20260503212558 | 15 | 0 | 4.8 | 25.7 | 0.00 | 0.00 | 0.00 | 35 | 1013.1 |
| 20260503212058 | 15 | 19 | 6.4 | 29.0 | 0.00 | 0.00 | 0.00 | 34 | 1013.0 |
| 20260503211619 | 15 | 304 | 14.5 | 29.0 | 0.00 | 0.00 | 0.00 | 36 | 1013.1 |
| 20260503211053 | 15 | 344 | 6.4 | 22.5 | 0.00 | 0.00 | 0.00 | 36 | 1013.1 |
| 20260503210555 | 15 | 339 | 9.7 | 22.5 | 0.00 | 0.00 | 0.00 | 34 | 1013.1 |
| 20260503210055 | 15 | 337 | 9.7 | 25.7 | 0.00 | 0.00 | 0.00 | 35 | 1013.2 |
| 20260503205552 | 15 | 344 | 12.9 | 29.0 | 0.00 | 0.00 | 0.00 | 33 | 1013.2 |
| 20260503205052 | 15 | 317 | 8.0 | 30.6 | 0.00 | 0.00 | 0.00 | 34 | 1013.3 |
| 20260503204608 | 15 | 316 | 9.7 | 32.2 | 0.00 | 0.00 | 0.00 | 34 | 1013.1 |
| 20260503204053 | 15 | 352 | 12.9 | 32.2 | 0.00 | 0.00 | 0.00 | 33 | 1013.2 |
| 20260503203553 | 15 | 296 | 12.9 | 33.8 | 0.00 | 0.00 | 0.00 | 33 | 1013.1 |
| 20260503203059 | 15 | 328 | 9.7 | 33.8 | 0.00 | 0.00 | 0.00 | 34 | 1013.2 |
| 20260503202553 | 15 | 26 | 9.7 | 33.8 | 0.00 | 0.00 | 0.00 | 34 | 1013.1 |
| 20260503202055 | 15 | 5 | 11.3 | 37.0 | 0.00 | 0.00 | 0.00 | 35 | 1013.2 |
| 20260503201556 | 15 | 331 | 11.3 | 37.0 | 0.00 | 0.00 | 0.00 | 34 | 1013.0 |
| 20260503201055 | 15 | 288 | 12.9 | 33.8 | 0.00 | 0.00 | 0.00 | 35 | 1013.2 |
| 20260503200555 | 15 | 319 | 8.0 | 32.2 | 0.00 | 0.00 | 0.00 | 35 | 1013.1 |
| 20260503200054 | 15 | 11 | 12.9 | 32.2 | 0.00 | 0.00 | 0.00 | 37 | 1013.2 |
| 20260503195555 | 15 | 315 | 8.0 | 40.2 | 0.00 | 0.00 | 0.00 | 35 | 1013.2 |
| 20260503195053 | 15 | 250 | 8.0 | 40.2 | 0.00 | 0.00 | 0.00 | 36 | 1013.2 |
| 20260503194554 | 15 | 341 | 17.7 | 40.2 | 0.00 | 0.00 | 0.00 | 34 | 1013.3 |
| 20260503194053 | 15 | 350 | 16.1 | 33.8 | 0.00 | 0.00 | 0.00 | 36 | 1013.1 |
| 20260503193553 | 15 | 272 | 12.9 | 33.8 | 0.00 | 0.00 | 0.00 | 34 | 1013.3 |
| 20260503193057 | 15 | 314 | 11.3 | 30.6 | 0.00 | 0.00 | 0.00 | 34 | 1013.4 |
| 20260503192553 | 15 | 280 | 9.7 | 32.2 | 0.00 | 0.00 | 0.00 | 37 | 1013.4 |
| 20260503192052 | 15 | 297 | 12.9 | 35.4 | 0.00 | 0.00 | 0.00 | 34 | 1013.5 |
| 20260503191603 | 15 | 341 | 16.1 | 35.4 | 0.00 | 0.00 | 0.00 | 38 | 1013.7 |
| 20260503191052 | 15 | 322 | 14.5 | 29.0 | 0.00 | 0.00 | 0.00 | 36 | 1013.7 |
| 20260503190553 | 15 | 319 | 9.7 | 25.7 | 0.00 | 0.00 | 0.00 | 34 | 1013.6 |
| 20260503190054 | 15 | 334 | 8.0 | 30.6 | 0.00 | 0.00 | 0.00 | 39 | 1013.8 |
| 20260503185553 | 14 | 15 | 12.9 | 30.6 | 0.00 | 0.00 | 0.00 | 35 | 1013.9 |
| 20260503185052 | 14 | 261 | 12.9 | 29.0 | 0.00 | 0.00 | 0.00 | 36 | 1013.9 |
| 20260503184618 | 14 | 0 | 12.9 | 29.0 | 0.00 | 0.00 | 0.00 | 37 | 1013.9 |
| 20260503184052 | 13 | 27 | 16.1 | 27.4 | 0.00 | 0.00 | 0.00 | 39 | 1013.9 |
| 20260503183554 | 13 | 352 | 12.9 | 27.4 | 0.00 | 0.00 | 0.00 | 40 | 1013.9 |
| 20260503183105 | 13 | 18 | 8.0 | 27.4 | 0.00 | 0.00 | 0.00 | 39 | 1014.0 |
| 20260503182554 | 13 | 301 | 12.9 | 27.4 | 0.00 | 0.00 | 0.00 | 40 | 1014.0 |
| 20260503182054 | 13 | 323 | 11.3 | 27.4 | 0.00 | 0.00 | 0.00 | 39 | 1014.1 |
| 20260503181552 | 13 | 336 | 8.0 | 24.1 | 0.00 | 0.00 | 0.00 | 42 | 1014.2 |
| 20260503181053 | 13 | 5 | 8.0 | 29.0 | 0.00 | 0.00 | 0.00 | 40 | 1014.1 |
| 20260503180553 | 13 | 0 | 8.0 | 29.0 | 0.00 | 0.00 | 0.00 | 40 | 1014.1 |
| 20260503180053 | 13 | 224 | 6.4 | 20.9 | 0.00 | 0.00 | 0.00 | 41 | 1014.2 |
| 20260503175553 | 12 | 236 | 9.7 | 29.0 | 0.00 | 0.00 | 0.00 | 42 | 1014.2 |